Regional Weather Roundup
Issued by NWS

Home | Current Version | Previous Version | Graphics & Text | Print | Product List | Glossary On
Versions: 1 2 3 4 5 6 7 8 9 10 11 12 13 14 15 16 17 18 19 20 21 22 23 24 25 26 27 28 29 30 31 32 33 34 35 36 37 38 39 40 41 42 43 44 45 46 47 48 49 50
000
ASUS45 KBOI 040610
RWRID

IDAHO REGIONAL WEATHER ROUNDUP
NATIONAL WEATHER SERVICE BOISE ID
1100 PM MST SAT DEC 03 2016

NOTE: "FAIR" INDICATES FEW OR NO CLOUDS BELOW 12000 FEET
WITH NO SIGNIFICANT WEATHER AND/OR OBSTRUCTIONS TO VISIBILITY

IDZ012-014-040700-
SOUTHWEST IDAHO


CITY           SKY/WX    TMP DP  RH WIND       PRES   REMARKS
BOISE          PTCLDY    35  28  75 SE6       30.18F WCI  30
CALDWELL       PTCLDY    32  27  81 E7        30.19F WCI  26
MOUNTAIN HOME  PTCLDY    27  24  89 NE7       30.19F WCI  19
$$

IDZ016-017-040700-
SOUTHCENTRAL IDAHO


CITY           SKY/WX    TMP DP  RH WIND       PRES   REMARKS
BURLEY         PTCLDY    32  23  69 SW8       30.18F WCI  25
JEROME         PTCLDY    29  23  78 SE8       30.18F WCI  21
TWIN FALLS     PTCLDY    32  21  64 S12       30.18F WCI  23
$$

IDZ019>023-040700-
SOUTHEAST IDAHO


CITY           SKY/WX    TMP DP  RH WIND       PRES   REMARKS
IDAHO FALLS    CLOUDY    30  25  81 SW13      30.15F WCI  20
POCATELLO      CLOUDY    35  25  66 S14       30.17F WCI  26
REXBURG        CLOUDY    27  24  89 SW7       30.12F WCI  19
$$

IDZ006-010-011-018-031-032-040700-
CENTRAL IDAHO MOUNTAINS


CITY           SKY/WX    TMP DP  RH WIND       PRES   REMARKS
MCCALL         CLOUDY    27  23  85 CALM      30.09F
HAILEY         CLEAR     19  18  93 NW3       30.16R
STANLEY          N/A     19  12  74 E9        30.10F WCI   8
SALMON         CLOUDY    25  18  74 N6        30.08S WCI  18
CHALLIS        MOCLDY    23  16  74 N3        30.07F
$$

IDZ002-004-006-007-026-040700-
NORTHERN IDAHO


CITY           SKY/WX    TMP DP  RH WIND       PRES   REMARKS
LEWISTON       CLOUDY    44  32  62 S5        30.10F
LOWELL           N/A     36  34  92 CALM      30.16S
COEUR D`ALENE  CLOUDY    38  32  79 S13       30.02S WCI  30
MULLAN PASS    LGT SNOW  24  22  91 SW8G18    29.92F FOG     WCI  15
$$



USA.gov is the U.S. government's official web portal to all federal, state and local government web resources and services.